CZ-6A DEB, 56609

Orbit data source: Space-Track

CZ-6A DEB, 56609 is space debris in SSO originally from a launch on Fri, 11 Nov 2022 UTC launched from the Taiyaun Space Center, China (TSC). Debris objects in space refer to the collection of defunct objects orbiting the Earth. Examples of debris include non-operational satellites, rocket bodies, and fragments generated from explosions, collisions, or faulty payload assembly.

Loading next visibility...
Identifier
56609, 2022-151AEH
Orbit
SSO
Country
Flag of CNCN / PRC
Related business
Manufacturer
SAST
Mission
Spacecraft
Bus & Motor
Unknown
Mass
Unknown
Launch date (UTC)
2022-11-11 (4 years ago)
Launch vehicle
Unknown
Launch site
Taiyaun Space Center, China (TSC)
Object type
Payload
Rocket body
Debris
Shape & HBR
Unknown shape, 0.1 m
Radar Cross Section
Small (<0.1 m²)

Expand to show TLE details & history
Last TLE update: 2 days ago

TLE from 2 days ago
0 CZ-6A DEB
1 56609U 22151AEH 26171.34562184  .00001015  00000-0  72823-3 0  9999
2 56609  98.8662 135.2102 0125810  51.0972 310.1330 13.95518217160439
Epoch: 2026-06-20T08:17Z
TLE epoch observation values (Epoch: 2026-06-20T08:17:41.726Z)
Latitude
-0.00011°
Longitude
102.22479°
Altitude
853.807 km
Speed
7.455 km/s
True Right ascension
09h 00m 50s
True Declination
0° 00' 00"
Sunlit
Object was in daylight at epoch
Visualization orbit readout
Latitude
Unknown
Longitude
Unknown
Altitude
Unknown
Speed
Unknown
Apparent Right ascension
Unknown
Apparent Declination
Unknown
Sunlit
N/A
Visualization observer readout
Local Sidereal Time
21:39:34
Azimuth
Unknown
Elevation
Unknown
Doppler factor
Unknown
Orbital elements
Apogee altitude
998.203 km
Perigee altitude
814.906 km
Semi-major axis
7,284.692 km
Eccentricity
0.01258
Inclination
98.8662°
RAAN
135.2102°
Arg. of periapsis
51.0972°
True anomaly
309.01955°
Mean anomaly
310.133°
Eccentric anomaly
309.5774°
Mean motion
3.49081 °/min
Orbital period
103.13 mins
BSTAR
0.00072823
Loading maneuver chart data...
Computing Atmospheric mass density...
Loading historical data...
Loading historical data...
Loading historical data...
Loading historical data...
Loading historical data...
Loading historical data...
Loading historical data...

Documentation

Showing up to 5 results
|